Location: Prescott
(34.5400°N, 112.4680°W)
Time: 22:49:22
(UTC-07:00)

Amateur Radio Satellites - All Passes

Search period start: 27 July 2015 22:19
Search period end: 28 July 2015 22:19
Location: Prescott, 34.5400°N, 112.4680°W

Satellite Date Start Highest point End Downlink Frequencies (MHz)
Time Altitude Azimuth
VELOX 1 27 Jul 22:20:14 22:24:17 37° 73° (ENE) 22:28:21 145.980
DX 1 27 Jul 22:24:10 22:28:31 78° 76° (ENE) 22:32:52 434.975-435.025
VERMONT LUNAR 27 Jul 22:31:45 22:34:29 26° 360° (N) 22:37:13 437.305
M-CUBED/EXP-1 PRIME 27 Jul 22:42:44 22:47:10 37° 292° (WNW) 22:51:29 437.505
ANTELSAT 27 Jul 22:43:01 22:47:33 49° 99° (E) 22:52:08 437.575/2403.000
TIGRISAT 27 Jul 22:43:25 22:47:56 47° 99° (E) 22:52:28 435.000
HUMSAT D 27 Jul 22:45:25 22:49:16 39° 262° (W) 22:53:10 437.325/437.525
POLYITAN 1 27 Jul 22:51:23 22:54:34 21° 94° (E) 22:57:50 437.675
ZACube-1 27 Jul 22:56:52 22:58:33 12° 270° (W) 23:00:01 437.345
AIST 1 27 Jul 22:58:15 23:01:30 22° 75° (ENE) 23:04:50
PHONESAT 2.4 27 Jul 23:03:02 23:06:22 40° 346° (NNW) 23:09:41 2401.200-2431.200
RS-15 27 Jul 23:03:36 23:14:16 56° 307° (NW) 23:25:15 29.354- 29.394
SPROUT 27 Jul 23:05:37 23:08:26 18° 70° (ENE) 23:11:24 437.525
POPSAT HIP 1 27 Jul 23:09:58 23:13:49 33° 97° (E) 23:17:42 437.405
AISAT 27 Jul 23:15:52 23:20:06 45° 261° (W) 23:24:20 437.250
QB50P2 27 Jul 23:16:11 23:20:14 42° 99° (E) 23:24:17 145.880/145.840
AUBIESAT-1 27 Jul 23:17:48 23:21:12 19° 296° (WNW) 23:24:26 437.475
ISS 27 Jul 23:28:36 23:30:48 17° 330° (NNW) 23:32:58 145.825
Cosmos 2491 27 Jul 23:32:15 23:40:45 56° 79° (ENE) 23:49:15 435.465 / 435.565
UNISAT 6 27 Jul 23:34:41 23:39:07 43° 286° (WNW) 23:43:34 437.425
TISAT 1 27 Jul 23:36:12 23:39:33 24° 71° (ENE) 23:42:59 437.305
BUGSAT 1 27 Jul 23:39:56 23:43:50 45° 99° (E) 23:47:46 437.445
UKube-1 27 Jul 23:42:00 23:44:27 14° 268° (W) 23:46:43 .
CUBEBUG 1 27 Jul 23:45:31 23:49:38 38° 262° (W) 23:53:42 437.445
QB50P1 27 Jul 23:45:42 23:49:58 85° 283° (WNW) 23:54:13 145.935-145.965
DUCHIFAT 1 27 Jul 23:46:14 23:50:29 87° 283° (WNW) 23:54:43 145.980
BEESAT 3 27 Jul 23:46:16 23:49:53 32° 114° (ESE) 23:53:35 437.485
NANOSAT C BR1 27 Jul 23:48:57 23:53:13 79° 283° (WNW) 23:57:27 145.865
ESTCUBE 1 27 Jul 23:49:04 23:53:06 30° 264° (W) 23:57:05 437.505/2401.250
50 SAT 27 Jul 23:49:55 23:51:55 13° 268° (W) 23:53:44 437.505
YUBILEINY 27 Jul 23:51:42 23:59:13 36° 88° (E) 00:06:59 435.215
VELOX 1 27 Jul 23:58:09 00:00:59 16° 267° (W) 00:03:38 145.980
VERMONT LUNAR 28 Jul 00:08:37 00:11:40 44° 17° (NNE) 00:14:40 437.305
ITUPSAT 1 28 Jul 00:14:24 00:15:39 11° 65° (ENE) 00:17:12 437.325
ANTELSAT 28 Jul 00:21:16 00:23:58 15° 292° (WNW) 00:26:27 437.575/2403.000
TIGRISAT 28 Jul 00:21:34 00:24:19 15° 292° (WNW) 00:26:53 435.000
POLYITAN 1 28 Jul 00:26:49 00:30:27 27° 288° (WNW) 00:34:01 437.675
AIST 1 28 Jul 00:35:41 00:39:07 23° 270° (W) 00:42:24
BEESAT 2 28 Jul 00:36:36 00:40:41 81° 298° (WNW) 00:44:50 435.950
SPROUT 28 Jul 00:40:28 00:44:19 31° 263° (W) 00:48:07 437.525
PHONESAT 2.4 28 Jul 00:41:41 00:44:48 29° 3° (N) 00:47:55 2401.200-2431.200
POPSAT HIP 1 28 Jul 00:46:37 00:49:27 17° 290° (WNW) 00:52:07 437.405
QB50P2 28 Jul 00:53:30 00:55:48 14° 291° (WNW) 00:57:54 145.880/145.840
O/OREOS (USA 219) 28 Jul 01:07:56 01:10:34 16° 101° (E) 01:13:25 437.305
BEESAT 28 Jul 01:10:03 01:14:37 46° 73° (ENE) 01:19:12 436.000
TISAT 1 28 Jul 01:11:57 01:15:16 22° 265° (W) 01:18:29 437.305
BUGSAT 1 28 Jul 01:17:26 01:18:57 12° 292° (WNW) 01:20:15 437.445
RS-15 28 Jul 01:23:23 01:30:13 17° 336° (NNW) 01:36:46 29.354- 29.394
BEESAT 3 28 Jul 01:24:55 01:27:55 19° 309° (NW) 01:30:50 437.485
SWISSCUBE 28 Jul 01:29:35 01:34:24 84° 74° (ENE) 01:39:14 437.505
Cosmos 2491 28 Jul 01:30:08 01:37:09 27° 275° (W) 01:43:52 435.465 / 435.565
AIST 2 28 Jul 01:37:17 01:41:32 83° 298° (WNW) 01:45:49 435.215
Oscar 19 28 Jul 01:40:58 01:46:02 54° 100° (E) 01:51:07 437.125/150
KKS-1 28 Jul 01:43:32 01:46:01 15° 68° (ENE) 01:48:42 437.445
VERMONT LUNAR 28 Jul 01:45:29 01:48:22 33° 211° (SSW) 01:51:13 437.305
YUBILEINY 28 Jul 01:47:46 01:55:55 42° 285° (WNW) 02:04:03 435.215
ITUPSAT 1 28 Jul 01:48:14 01:53:02 69° 259° (W) 01:57:50 437.325
Cosmos 2504 28 Jul 01:58:35 02:03:38 23° 85° (E) 02:09:11 435.465 / 435.565
Gurwin Techsat 1B 28 Jul 02:02:46 02:06:58 24° 94° (E) 02:11:17 435.225
PHONESAT 2.4 28 Jul 02:19:41 02:23:09 61° 20° (NNE) 02:26:34 2401.200-2431.200
O/OREOS (USA 219) 28 Jul 02:45:34 02:49:43 37° 295° (WNW) 02:53:52 437.305
BEESAT 28 Jul 02:49:53 02:52:44 15° 268° (W) 02:55:21 436.000
ITAMSAT 1 28 Jul 02:51:34 02:56:44 67° 101° (E) 03:01:52 435.822/435.867
STARS 28 Jul 03:02:48 03:07:09 75° 77° (ENE) 03:11:31 437.465
JAS-2 28 Jul 03:13:14 03:20:43 48° 97° (E) 03:28:11 435.910
KKS-1 28 Jul 03:18:11 03:22:21 40° 261° (W) 03:26:32 437.445
Oscar 19 28 Jul 03:21:49 03:25:00 16° 293° (WNW) 03:27:57 437.125/150
AO-7 28 Jul 03:23:02 03:29:27 25° 94° (E) 03:36:09 29.400- 29.500
MOZHAYETS 4 28 Jul 03:35:25 03:39:21 29° 72° (ENE) 03:43:24
Gurwin Techsat 1B 28 Jul 03:42:12 03:47:02 35° 289° (WNW) 03:51:45 435.225
RS-15 28 Jul 03:44:54 03:49:32 13° 13° (NNE) 03:54:34 29.354- 29.394
Cosmos 2504 28 Jul 03:48:35 03:55:21 51° 282° (WNW) 04:02:29 435.465 / 435.565
PHONESAT 2.4 28 Jul 03:58:02 04:00:57 25° 214° (SW) 04:03:49 2401.200-2431.200
DANDE 28 Jul 04:15:27 04:18:37 23° 98° (E) 04:21:19 436.750
JUGNU 28 Jul 04:16:13 04:18:22 12° 167° (SSE) 04:20:36 437.505
HORYU 2 28 Jul 04:17:58 04:22:28 71° 101° (E) 04:26:57 437.375
ISS 28 Jul 04:22:11 04:24:09 15° 29° (NNE) 04:26:10 145.825
ITAMSAT 1 28 Jul 04:33:18 04:35:44 13° 295° (WNW) 04:37:52 435.822/435.867
GONETS M04 28 Jul 04:37:45 04:40:22 12° 80° (E) 04:43:48
JAS-2 28 Jul 04:58:39 05:05:28 34° 292° (WNW) 05:12:09 435.910
CUSAT 1 28 Jul 05:08:41 05:11:43 27° 280° (W) 05:14:15 437.405
MOZHAYETS 4 28 Jul 05:12:55 05:16:36 22° 266° (W) 05:20:11
AO-7 28 Jul 05:14:35 05:22:46 61° 291° (WNW) 05:30:52 29.400- 29.500
CUBESAT XI-V 28 Jul 05:16:41 05:20:40 29° 72° (ENE) 05:24:44 437.345
CUTE-I 28 Jul 05:27:57 05:28:56 11° 89° (E) 05:30:21 437.470
STRAND 1 28 Jul 05:35:26 05:38:18 16° 66° (ENE) 05:41:25 437.568
RS-15 28 Jul 05:56:41 06:07:06 36° 45° (NE) 06:18:06 29.354- 29.394
ISS 28 Jul 05:57:39 06:00:52 57° 226° (SW) 06:04:03 145.825
SRMSAT 28 Jul 05:59:30 06:01:27 12° 166° (SSE) 06:03:30 437.500
DANDE 28 Jul 05:59:59 06:01:37 12° 282° (WNW) 06:02:58 436.750
JUGNU 28 Jul 06:02:48 06:06:41 18° 176° (S) 06:10:34 437.505
Cubesat XI-IV 28 Jul 06:07:31 06:12:08 30° 96° (E) 06:16:49 437.490
GONETS M04 28 Jul 06:27:24 06:36:07 82° 95° (E) 06:44:51
PRISM 28 Jul 06:43:15 06:47:24 63° 75° (ENE) 06:51:33 437.425
CUBESAT XI-V 28 Jul 06:54:18 06:58:06 23° 266° (W) 07:01:47 437.345
CUTE-I 28 Jul 07:04:21 07:09:40 74° 285° (WNW) 07:14:57 437.470
BRITE-PL 28 Jul 07:05:24 07:06:40 11° 91° (E) 07:08:16 437.365/2234.400
AO-7 28 Jul 07:11:55 07:14:08 11° 308° (NW) 07:15:44 29.400- 29.500
STRAND 1 28 Jul 07:12:04 07:17:06 55° 260° (W) 07:22:10 437.568
Cosmos 2499 28 Jul 07:23:53 07:30:24 39° 89° (E) 07:37:27 435.465 / 435.565
GOMX 1 28 Jul 07:37:53 07:40:41 17° 93° (E) 07:43:46 467.674
SRMSAT 28 Jul 07:46:03 07:49:55 18° 175° (S) 07:53:50 437.500
Cubesat XI-IV 28 Jul 07:47:38 07:52:10 28° 290° (WNW) 07:56:36 437.490
DOVE 4 28 Jul 07:48:54 07:50:57 13° 92° (E) 07:53:19 437.250
HO-68 28 Jul 07:50:33 07:55:04 18° 91° (E) 07:59:59 435.675
JUGNU 28 Jul 07:51:15 07:55:01 17° 186° (S) 07:58:44 437.505
M-CUBED/EXP-1 PRIME 28 Jul 07:54:55 07:56:42 13° 61° (ENE) 07:58:44 437.505
RS-15 28 Jul 08:08:43 08:20:29 68° 246° (WSW) 08:32:31 29.354- 29.394
AUBIESAT-1 28 Jul 08:27:01 08:30:15 26° 66° (ENE) 08:33:47 437.475
GONETS M04 28 Jul 08:28:28 08:34:10 18° 295° (WNW) 08:39:20
COMPASS 1 28 Jul 08:28:42 08:31:22 17° 93° (E) 08:34:09 437.405
CINEMA 3 28 Jul 08:30:13 08:33:11 17° 93° (E) 08:36:24 145.822/145.860
CUTE 1.7 + AOD 2 28 Jul 08:31:06 08:34:52 30° 96° (E) 08:38:40 437.475
SEEDS 28 Jul 08:35:36 08:39:11 26° 95° (E) 08:42:49 437.485
CANX-2 28 Jul 08:38:33 08:42:38 41° 98° (E) 08:46:42 2200.000
BRITE-PL 28 Jul 08:41:19 08:45:30 50° 284° (WNW) 08:49:57 437.365/2234.400
BEESAT 2 28 Jul 08:59:35 09:02:40 21° 51° (NE) 09:05:46 435.950
ZACube-1 28 Jul 09:11:44 09:13:22 12° 90° (E) 09:15:18 437.345
AAUSAT CUBESAT 2 28 Jul 09:12:55 09:17:00 49° 99° (E) 09:21:04 437.432
SO-50 28 Jul 09:13:47 09:17:37 26° 112° (ESE) 09:21:40 436.795
GOMX 1 28 Jul 09:14:49 09:18:56 38° 286° (WNW) 09:23:17 467.674
Cosmos 2499 28 Jul 09:17:15 09:23:40 32° 288° (WNW) 09:30:20 435.465 / 435.565
UWE-3 28 Jul 09:23:57 09:27:34 23° 95° (E) 09:31:20 435.000/436.395/437.385
DOVE 4 28 Jul 09:24:34 09:28:57 50° 285° (WNW) 09:33:36 437.250
M-CUBED/EXP-1 PRIME 28 Jul 09:27:28 09:31:04 42° 258° (WSW) 09:34:59 437.505
CUBEBUG 2 28 Jul 09:29:44 09:33:56 35° 97° (E) 09:38:17 437.445
DELFI C3 28 Jul 09:30:40 09:33:40 20° 94° (E) 09:36:46 145.870
FUNcube-1 28 Jul 09:33:55 09:37:22 22° 94° (E) 09:40:58 145.935
PCSat 28 Jul 09:33:58 09:39:19 68° 114° (ESE) 09:44:43 145.827
SRMSAT 28 Jul 09:34:33 09:38:25 18° 185° (S) 09:42:16 437.500
HO-68 28 Jul 09:36:18 09:43:27 69° 288° (WNW) 09:50:34 435.675
ANTELSAT 28 Jul 09:39:11 09:42:45 27° 71° (ENE) 09:46:28 437.575/2403.000
TIGRISAT 28 Jul 09:39:25 09:42:55 26° 71° (ENE) 09:46:33 435.000
JUGNU 28 Jul 09:42:06 09:43:19 11° 195° (SSW) 09:44:24 437.505
POLYITAN 1 28 Jul 09:43:42 09:44:15 10° 67° (ENE) 09:45:03 437.675
BEESAT 3 28 Jul 09:45:13 09:49:15 90° 43° (NE) 09:53:14 437.485
Oscar 11 28 Jul 09:53:53 09:58:13 64° 100° (E) 10:02:32 145.826/435.025
POPSAT HIP 1 28 Jul 10:00:26 10:03:02 17° 69° (ENE) 10:05:47 437.405
AUBIESAT-1 28 Jul 10:02:11 10:05:02 19° 263° (W) 10:07:55 437.475
AIST 2 28 Jul 10:02:53 10:06:11 22° 52° (NE) 10:09:30 435.215
COMPASS 1 28 Jul 10:03:20 10:07:07 32° 287° (WNW) 10:10:51 437.405
CINEMA 3 28 Jul 10:06:11 10:10:31 40° 286° (WNW) 10:15:00 145.822/145.860
QB50P2 28 Jul 10:06:25 10:09:30 20° 70° (ENE) 10:12:40 145.880/145.840
CUTE 1.7 + AOD 2 28 Jul 10:07:29 10:10:36 19° 290° (WNW) 10:13:35 437.475
YUBILEINY 28 Jul 10:08:05 10:11:45 14° 62° (ENE) 10:16:08 435.215
SEEDS 28 Jul 10:11:35 10:14:51 21° 289° (WNW) 10:17:59 437.485
CANX-2 28 Jul 10:15:50 10:18:13 14° 291° (WNW) 10:20:25 2200.000
DX 1 28 Jul 10:17:07 10:19:56 17° 94° (E) 10:22:53 434.975-435.025
BUGSAT 1 28 Jul 10:27:20 10:30:18 20° 71° (ENE) 10:33:21 437.445
RS-15 28 Jul 10:27:36 10:31:29 11° 260° (W) 10:33:53 29.354- 29.394
UNISAT 6 28 Jul 10:29:57 10:34:13 74° 258° (WSW) 10:38:36 437.425
HUMSAT D 28 Jul 10:32:30 10:36:35 41° 98° (E) 10:40:41 437.325/437.525
QB50P1 28 Jul 10:34:55 10:38:52 43° 74° (ENE) 10:42:53 145.935-145.965
DUCHIFAT 1 28 Jul 10:35:05 10:39:00 41° 74° (ENE) 10:42:57 145.980
BEESAT 2 28 Jul 10:37:13 10:40:44 28° 247° (WSW) 10:44:09 435.950
NANOSAT C BR1 28 Jul 10:37:54 10:41:54 46° 75° (ENE) 10:45:56 145.865
ZACube-1 28 Jul 10:45:39 10:50:03 52° 285° (WNW) 10:54:30 437.345
AAUSAT CUBESAT 2 28 Jul 10:50:37 10:52:13 12° 292° (WNW) 10:53:34 437.432
SO-50 28 Jul 10:53:49 10:58:04 31° 307° (NW) 11:02:23 436.795
UWE-3 28 Jul 11:00:08 11:04:04 28° 288° (WNW) 11:07:59 435.000/436.395/437.385
DELFI C3 28 Jul 11:05:22 11:08:42 24° 288° (WNW) 11:11:56 145.870
CUBEBUG 2 28 Jul 11:07:04 11:10:25 20° 290° (WNW) 11:13:40 437.445
FUNcube-1 28 Jul 11:09:45 11:13:41 29° 288° (WNW) 11:17:35 145.935
AISAT 28 Jul 11:09:49 11:14:00 42° 99° (E) 11:18:12 437.250
POLYITAN 1 28 Jul 11:15:36 11:19:43 55° 260° (W) 11:23:51 437.675
ANTELSAT 28 Jul 11:16:13 11:19:33 21° 266° (W) 11:22:49 437.575/2403.000
TIGRISAT 28 Jul 11:16:17 11:19:40 22° 266° (W) 11:22:59 435.000
PCSat 28 Jul 11:19:56 11:23:19 16° 312° (NW) 11:26:31 145.827
O/OREOS (USA 219) 28 Jul 11:20:17 11:23:31 19° 60° (ENE) 11:26:53 437.305
AIST 1 28 Jul 11:24:50 11:27:22 16° 89° (E) 11:30:06
SRMSAT 28 Jul 11:25:07 11:26:54 11° 194° (SSW) 11:28:34 437.500
50 SAT 28 Jul 11:26:23 11:30:23 87° 102° (ESE) 11:34:21 437.505
HO-68 28 Jul 11:28:21 11:30:07 11° 303° (WNW) 11:31:19 435.675
UKube-1 28 Jul 11:30:38 11:34:55 66° 285° (WNW) 11:39:11 .
POPSAT HIP 1 28 Jul 11:34:52 11:38:40 33° 263° (W) 11:42:27 437.405
CUBEBUG 1 28 Jul 11:37:32 11:41:43 48° 99° (E) 11:45:54 437.445
AIST 2 28 Jul 11:41:10 11:44:45 27° 247° (WSW) 11:48:13 435.215
QB50P2 28 Jul 11:41:39 11:45:15 26° 264° (W) 11:48:47 145.880/145.840
ESTCUBE 1 28 Jul 11:44:36 11:49:06 73° 101° (ESE) 11:53:34 437.505/2401.250
VELOX 1 28 Jul 11:50:06 11:54:28 65° 284° (WNW) 11:58:49 145.980
DX 1 28 Jul 11:52:22 11:56:17 33° 288° (WNW) 12:00:08 434.975-435.025
YUBILEINY 28 Jul 12:01:23 12:10:15 82° 83° (E) 12:19:06 435.215
BUGSAT 1 28 Jul 12:02:14 12:05:39 25° 264° (W) 12:08:58 437.445
HUMSAT D 28 Jul 12:09:31 12:12:00 15° 291° (WNW) 12:14:17 437.325/437.525
DUCHIFAT 1 28 Jul 12:13:06 12:15:04 13° 269° (W) 12:16:46 145.980
QB50P1 28 Jul 12:13:13 12:15:01 12° 269° (W) 12:16:34 145.935-145.965
NANOSAT C BR1 28 Jul 12:16:37 12:18:03 11° 269° (W) 12:19:12 145.865
Cosmos 2491 28 Jul 12:28:23 12:37:06 72° 94° (E) 12:45:50 435.465 / 435.565
SPROUT 28 Jul 12:30:00 12:34:13 55° 100° (E) 12:38:25 437.525
AISAT 28 Jul 12:47:44 12:50:15 15° 292° (WNW) 12:52:35 437.250
Oscar 19 28 Jul 12:54:21 12:59:18 54° 74° (ENE) 13:04:18 437.125/150
TISAT 1 28 Jul 12:58:38 13:02:51 73° 102° (ESE) 13:07:03 437.305
O/OREOS (USA 219) 28 Jul 12:58:53 13:03:05 35° 255° (WSW) 13:07:12 437.305
AIST 1 28 Jul 13:00:48 13:04:47 33° 282° (WNW) 13:08:43
BEESAT 28 Jul 13:15:08 13:17:53 16° 92° (E) 13:20:50 436.000
CUBEBUG 1 28 Jul 13:15:45 13:17:42 13° 292° (WNW) 13:19:26 437.445
Gurwin Techsat 1B 28 Jul 13:20:28 13:24:52 28° 70° (ENE) 13:29:23 435.225
JAS-2 28 Jul 13:26:05 13:27:55 12° 59° (ENE) 13:30:13 435.910
SWISSCUBE 28 Jul 13:33:59 13:38:03 28° 96° (E) 13:42:09 437.505
Cosmos 2504 28 Jul 13:37:42 13:45:30 42° 76° (ENE) 13:53:36 435.465 / 435.565
ITUPSAT 1 28 Jul 13:52:34 13:57:04 40° 98° (E) 14:01:33 437.325
YUBILEINY 28 Jul 14:00:46 14:06:11 17° 278° (W) 14:11:01 435.215
ITAMSAT 1 28 Jul 14:05:54 14:11:05 71° 76° (ENE) 14:16:19 435.822/435.867
SPROUT 28 Jul 14:08:37 14:09:52 11° 293° (WNW) 14:10:52 437.525
AO-7 28 Jul 14:18:37 14:25:09 28° 61° (ENE) 14:31:57 29.400- 29.500
Cosmos 2491 28 Jul 14:28:29 14:34:56 21° 293° (WNW) 14:40:55 435.465 / 435.565
Oscar 19 28 Jul 14:36:14 14:39:04 14° 269° (W) 14:41:37 437.125/150
BEESAT 28 Jul 14:51:26 14:55:59 44° 287° (WNW) 15:00:28 436.000
STARS 28 Jul 14:56:59 14:59:57 18° 94° (E) 15:03:02 437.465
DANDE 28 Jul 14:57:09 14:58:51 13° 78° (ENE) 15:00:58 436.750
Gurwin Techsat 1B 28 Jul 15:00:05 15:04:46 31° 264° (W) 15:09:24 435.225
JAS-2 28 Jul 15:06:12 15:11:55 88° 77° (ENE) 15:18:29 435.910
SWISSCUBE 28 Jul 15:11:53 15:15:49 25° 290° (WNW) 15:19:36 437.505
KKS-1 28 Jul 15:12:27 15:16:46 48° 99° (E) 15:21:05 437.445
HORYU 2 28 Jul 15:12:46 15:16:54 41° 73° (ENE) 15:21:07 437.375
Cosmos 2504 28 Jul 15:30:03 15:37:36 37° 272° (W) 15:45:10 435.465 / 435.565
ITUPSAT 1 28 Jul 15:31:22 15:34:40 18° 292° (WNW) 15:37:47 437.325
CUSAT 1 28 Jul 15:44:31 15:48:33 89° 263° (W) 15:53:58 437.405
ITAMSAT 1 28 Jul 15:49:40 15:51:12 11° 271° (W) 15:52:20 435.822/435.867
AO-7 28 Jul 16:09:12 16:17:28 62° 257° (WSW) 16:25:44 29.400- 29.500
STARS 28 Jul 16:32:29 16:36:29 33° 288° (WNW) 16:40:25 437.465
DANDE 28 Jul 16:38:28 16:41:49 32° 262° (W) 16:46:04 436.750
GONETS M04 28 Jul 16:42:36 16:50:11 34° 73° (ENE) 16:58:00
CUTE-I 28 Jul 16:45:40 16:48:21 15° 65° (ENE) 16:51:19 437.470
KKS-1 28 Jul 16:50:45 16:53:02 13° 292° (WNW) 16:55:05 437.445
HORYU 2 28 Jul 16:51:13 16:53:46 15° 268° (W) 16:56:08 437.375
MOZHAYETS 4 28 Jul 17:10:23 17:15:00 72° 284° (WNW) 17:19:35
Cosmos 2499 28 Jul 17:21:04 17:23:52 12° 61° (ENE) 17:27:28 435.465 / 435.565
Cubesat XI-IV 28 Jul 17:26:01 17:30:51 36° 71° (ENE) 17:35:46 437.490
SO-50 28 Jul 17:49:45 17:51:41 12° 43° (NE) 17:53:48 436.795
VERMONT LUNAR 28 Jul 18:16:27 18:18:39 18° 145° (SE) 18:20:55 437.305
CUTE-I 28 Jul 18:22:39 18:27:58 64° 259° (W) 18:33:18 437.470
PCSat 28 Jul 18:25:55 18:30:23 26° 54° (NE) 18:34:57 145.827
PRISM 28 Jul 18:31:28 18:32:33 11° 91° (E) 18:33:54 437.425
GONETS M04 28 Jul 18:39:03 18:47:14 45° 270° (W) 18:55:18
GOMX 1 28 Jul 18:44:59 18:46:10 11° 69° (ENE) 18:47:37 467.674
CUBESAT XI-V 28 Jul 18:53:25 18:58:01 70° 283° (WNW) 19:02:34 437.345
Cubesat XI-IV 28 Jul 19:06:42 19:11:03 24° 266° (W) 19:15:16 437.490
Cosmos 2499 28 Jul 19:10:02 19:18:46 73° 82° (E) 19:27:39 435.465 / 435.565
CUTE 1.7 + AOD 2 28 Jul 19:21:53 19:24:07 15° 69° (ENE) 19:26:34 437.475
SEEDS 28 Jul 19:25:54 19:27:40 13° 68° (ENE) 19:29:39 437.485
STRAND 1 28 Jul 19:26:04 19:31:10 68° 102° (ESE) 19:36:14 437.568
SO-50 28 Jul 19:28:01 19:32:59 87° 238° (WSW) 19:37:47 436.795
CANX-2 28 Jul 19:28:47 19:31:49 20° 70° (ENE) 19:34:59 2200.000
BRITE-PL 28 Jul 19:48:48 19:53:24 66° 259° (W) 19:57:42 437.365/2234.400
VERMONT LUNAR 28 Jul 19:52:00 19:55:11 73° 338° (NNW) 19:58:22 437.305
HO-68 28 Jul 20:00:29 20:07:29 64° 72° (ENE) 20:14:34 435.675
AAUSAT CUBESAT 2 28 Jul 20:00:48 20:03:56 21° 71° (ENE) 20:07:11 437.432
PRISM 28 Jul 20:04:21 20:08:18 45° 286° (WNW) 20:12:11 437.425
PCSat 28 Jul 20:08:56 20:13:54 37° 250° (WSW) 20:18:48 145.827
RS-15 28 Jul 20:18:30 20:26:34 26° 105° (ESE) 20:35:16 29.354- 29.394
GOMX 1 28 Jul 20:19:45 20:24:01 50° 260° (W) 20:28:07 467.674
UWE-3 28 Jul 20:20:04 20:21:20 11° 68° (ENE) 20:22:51 435.000/436.395/437.385
CUBEBUG 2 28 Jul 20:25:53 20:28:37 18° 70° (ENE) 20:31:32 437.445
DOVE 4 28 Jul 20:27:01 20:31:16 72° 259° (W) 20:35:24 437.250
FUNcube-1 28 Jul 20:29:05 20:29:44 10° 67° (ENE) 20:30:39 145.935
PHONESAT 2.4 28 Jul 20:40:31 20:43:46 37° 149° (SSE) 20:47:03 2401.200-2431.200
Oscar 11 28 Jul 20:45:23 20:49:11 31° 73° (ENE) 20:53:03 145.826/435.025
COMPASS 1 28 Jul 20:50:12 20:54:24 77° 258° (WSW) 20:58:38 437.405
CUTE 1.7 + AOD 2 28 Jul 20:55:43 20:59:43 39° 262° (W) 21:03:45 437.475
ISS 28 Jul 20:58:47 21:01:19 22° 130° (SE) 21:03:55 145.825
SEEDS 28 Jul 20:59:01 21:03:05 45° 261° (W) 21:07:11 437.485
CANX-2 28 Jul 21:03:51 21:07:35 28° 264° (W) 21:11:16 2200.000
CINEMA 3 28 Jul 21:04:35 21:08:42 62° 260° (W) 21:12:49 145.822/145.860
Cosmos 2499 28 Jul 21:05:00 21:11:15 21° 276° (W) 21:17:06 435.465 / 435.565
STRAND 1 28 Jul 21:07:39 21:09:51 12° 295° (WNW) 21:11:47 437.568
DX 1 28 Jul 21:11:50 21:12:23 10° 66° (ENE) 21:13:12 434.975-435.025
M-CUBED/EXP-1 PRIME 28 Jul 21:11:53 21:15:28 21° 98° (E) 21:19:08 437.505
HUMSAT D 28 Jul 21:21:47 21:24:34 18° 70° (ENE) 21:27:30 437.325/437.525
VERMONT LUNAR 28 Jul 21:29:25 21:32:14 28° 354° (N) 21:35:01 437.305
AAUSAT CUBESAT 2 28 Jul 21:35:54 21:39:25 25° 265° (W) 21:42:52 437.432
ZACube-1 28 Jul 21:37:59 21:42:07 79° 78° (ENE) 21:46:22 437.345
AUBIESAT-1 28 Jul 21:44:22 21:48:51 41° 102° (ESE) 21:53:14 437.475
DELFI C3 28 Jul 21:47:58 21:51:59 65° 259° (W) 21:56:02 145.870
HO-68 28 Jul 21:50:38 21:55:47 20° 268° (W) 22:00:37 435.675
UWE-3 28 Jul 21:53:28 21:57:29 48° 261° (W) 22:01:33 435.000/436.395/437.385
CUBEBUG 2 28 Jul 22:01:28 22:05:08 29° 264° (W) 22:08:47 437.445
FUNcube-1 28 Jul 22:01:34 22:05:37 53° 260° (W) 22:09:45 145.935
AISAT 28 Jul 22:04:34 22:08:08 25° 71° (ENE) 22:11:48 437.250
50 SAT 28 Jul 22:07:03 22:10:19 27° 73° (ENE) 22:13:40 437.505
